Wind_Speed
45 47 46 46 48 49 51 52 54 55 55 55 56 57 57 54 55 57 59 60 59 60 63 65 65 66 66 68 67 69 70 70 68
46 47 48 48 50 51 52 53 55 55 58 59 58 58 58 59 61 60 62 64 63 62 63 64 65 67 68 67 69 69 68 68 69
49 50 51 52 53 54 55 55 56 59 61 63 62 61 62 63 64 64 65 67 65 66 66 65 66 65 68 68 67 66 67 67 69
54 54 55 56 56 58 60 60 63 64 64 62 61 61 62 63 64 67 67 70 69 69 66 65 64 67 67 65 65 67 69 69 65
55 56 57 57 59 61 63 65 64 63 63 63 63 64 65 66 68 68 68 68 65 67 66 65 67 65 65 69 69 65 60 59 56
59 59 60 62 63 64 65 64 64 67 67 66 67 65 66 68 69 67 70 68 68 66 64 66 67 67 68 65 57 54 53 51 51
61 62 64 66 66 65 65 66 67 68 67 68 68 69 71 70 72 70 68 66 66 63 64 65 66 65 61 57 51 50 49 48 47
64 65 67 66 65 67 69 69 68 67 67 70 72 73 73 71 71 72 67 65 61 62 63 61 58 55 52 49 48 48 46 44 42
68 69 69 70 70 70 70 71 71 71 73 73 75 75 72 71 70 70 68 62 59 60 58 58 58 53 52 47 45 45 46 46 41
71 71 72 72 72 72 75 74 72 73 74 73 72 73 72 71 69 68 65 63 63 60 58 55 55 59 53 51 49 48 47 43 42
73 75 76 75 74 75 76 75 74 72 72 70 71 73 72 69 67 65 66 66 65 63 60 60 60 59 57 55 55 52 52 49 45
74 74 74 74 73 74 75 73 73 72 71 70 71 72 71 69 66 66 69 68 67 66 64 64 64 62 58 59 57 57 57 55 57
76 75 75 74 74 73 74 74 74 72 73 72 73 71 70 70 67 69 69 69 69 69 68 66 66 66 62 60 62 62 61 57 57
79 79 80 80 79 79 78 77 76 74 73 73 73 70 71 72 70 72 71 70 71 70 71 69 67 66 65 67 66 64 62 58 56
84 84 85 84 81 79 79 79 79 77 76 76 76 73 73 72 73 72 71 72 72 73 71 68 68 67 68 68 69 66 66 63 61
88 88 87 85 83 82 84 83 81 79 77 77 78 74 72 76 76 74 75 75 73 74 71 74 72 72 71 72 69 70 66 60 58
92 89 90 89 89 89 86 86 83 81 80 80 79 76 76 77 77 75 76 75 75 75 76 76 73 72 72 77 75 70 66 63 61
96 91 90 91 90 90 89 88 86 85 82 82 81 79 79 81 80 77 77 77 77 79 79 76 77 77 76 73 72 69 70 69 68
92 92 95 92 91 90 91 89 88 89 86 88 84 85 83 83 82 80 80 77 79 83 81 83 77 76 71 69 70 74 73 70 69
99 97 94 94 94 93 94 93 92 92 92 89 89 89 84 80 81 79 80 83 88 85 84 79 78 74 76 75 76 77 75 74 74
Wind_Direction
283 284 286 286 287 287 288 289 289 291 292 294 294 295 294 294 295 296 297 297 297 297 295 295 293 293 295 295 292 291 291 292 291
281 283 284 285 286 285 285 288 291 292 295 296 295 293 293 293 296 298 297 297 297 297 298 297 295 296 296 295 294 292 293 293 293
283 285 286 287 287 288 289 290 292 294 294 294 294 294 294 296 296 297 298 299 297 299 297 300 299 299 299 298 295 297 294 293 292
283 284 286 288 288 290 290 291 292 292 293 295 294 295 296 297 298 298 299 299 299 300 299 300 301 302 301 298 297 298 297 296 294
283 285 285 287 289 290 290 291 291 293 294 293 294 296 298 298 300 300 303 302 300 303 304 304 303 302 299 300 300 298 298 295 294
284 285 284 286 288 289 289 290 291 292 291 292 294 296 298 300 301 302 303 305 304 307 305 303 301 301 302 303 302 302 301 296 294
283 285 286 287 288 289 289 289 291 290 292 294 295 296 299 301 302 304 305 304 304 302 304 303 303 304 304 303 302 302 301 298 295
285 285 286 286 287 288 289 291 293 294 294 296 297 298 301 302 303 304 302 303 303 306 305 308 312 309 308 306 304 303 301 300 299
284 285 284 285 286 289 291 292 294 296 296 298 298 300 302 303 303 302 302 302 302 308 310 312 313 317 316 311 304 301 302 298 298
283 283 285 287 289 292 293 295 295 296 296 298 299 302 301 301 302 301 301 300 305 310 311 311 315 322 315 309 308 303 301 298 298
285 286 287 289 290 292 293 294 295 295 295 297 298 299 298 298 299 300 301 302 305 311 312 315 317 319 320 310 304 304 304 296 298
286 286 288 289 291 292 293 294 294 294 295 296 295 296 296 296 297 298 300 302 305 309 312 315 316 317 315 316 308 304 303 298 298
287 288 289 290 291 291 292 292 293 293 293 294 296 296 296 297 296 298 300 302 305 306 309 310 311 313 309 306 307 303 304 301 300
287 288 288 289 291 290 291 291 292 291 291 292 294 294 294 294 295 298 299 302 303 303 308 308 307 306 303 303 303 301 300 300 297
288 288 289 290 290 289 289 289 289 289 289 291 291 289 291 292 294 295 297 298 298 300 302 300 299 299 297 300 298 298 297 299 297
288 289 289 289 288 287 287 287 287 287 288 288 288 290 289 291 293 295 296 295 294 296 298 299 298 298 296 296 298 296 297 297 300
287 287 288 289 287 286 287 287 286 286 285 288 289 288 289 288 291 292 292 293 292 293 296 298 296 298 297 297 296 297 297 302 301
286 285 286 287 286 286 286 285 284 284 285 285 286 285 287 289 289 288 288 288 290 292 295 295 295 293 294 294 297 297 298 299 298
284 284 286 286 285 285 284 284 284 283 283 284 284 285 285 285 285 286 285 286 288 291 293 294 291 291 291 291 291 292 292 293 292
287 286 283 284 283 283 283 283 283 283 283 282 283 283 282 282 282 283 283 286 289 290 291 290 289 288 287 287 288 288 289 291 292
Height
10906 10905 10905 10903 10902 10901 10899 10896 10895 10893 10890 10887 10885 10882 10879 10877 10874 10871 10866 10862 10858 10855 10850 10846 10841 10836 10832 10827 10822 10818 10812 10809 10805
10899 10899 10897 10896 10895 10893 10891 10889 10887 10885 10882 10879 10876 10873 10870 10867 10864 10861 10856 10851 10847 10844 10839 10833 10829 10824 10820 10815 10810 10804 10799 10795 10791
10892 10891 10890 10889 10887 10885 10883 10881 10879 10876 10873 10871 10868 10864 10861 10857 10854 10850 10845 10839 10835 10831 10827 10821 10815 10811 10805 10802 10796 10791 10787 10783 10778
10884 10883 10882 10881 10880 10878 10875 10872 10870 10867 10864 10861 10858 10854 10850 10846 10843 10838 10833 10828 10823 10819 10815 10808 10803 10798 10792 10788 10785 10779 10774 10769 10765
10876 10875 10874 10873 10870 10868 10865 10863 10860 10857 10854 10851 10848 10844 10840 10836 10832 10827 10822 10815 10811 10808 10803 10796 10791 10785 10781 10776 10771 10767 10761 10757 10752
10867 10865 10864 10862 10860 10858 10856 10853 10851 10847 10844 10841 10837 10834 10830 10826 10821 10816 10812 10805 10799 10794 10791 10786 10780 10775 10769 10763 10758 10755 10750 10746 10743
10857 10855 10853 10851 10850 10847 10845 10842 10840 10836 10833 10829 10825 10822 10818 10813 10808 10803 10800 10794 10789 10784 10780 10774 10768 10762 10757 10752 10747 10743 10740 10736 10733
10846 10844 10842 10840 10838 10836 10833 10830 10827 10824 10820 10816 10812 10808 10804 10800 10795 10790 10787 10784 10778 10773 10768 10763 10756 10751 10746 10742 10738 10734 10731 10727 10725
10835 10833 10831 10828 10826 10824 10820 10818 10815 10812 10807 10802 10797 10794 10790 10786 10782 10777 10772 10771 10767 10762 10757 10752 10747 10741 10737 10733 10729 10726 10723 10720 10718
10823 10821 10820 10817 10814 10812 10808 10805 10802 10798 10793 10788 10784 10780 10777 10773 10770 10763 10761 10758 10755 10752 10746 10742 10737 10733 10728 10725 10722 10718 10715 10712 10710
10811 10808 10807 10804 10801 10798 10794 10790 10787 10784 10780 10777 10773 10768 10764 10762 10758 10754 10750 10746 10743 10740 10735 10731 10727 10723 10719 10715 10712 10709 10706 10703 10700
10798 10796 10793 10789 10787 10784 10780 10776 10772 10769 10767 10764 10760 10756 10752 10749 10746 10744 10737 10734 10730 10727 10723 10719 10715 10712 10709 10705 10702 10699 10696 10693 10690
10785 10781 10778 10775 10773 10769 10766 10763 10760 10757 10753 10750 10747 10742 10738 10735 10733 10729 10727 10721 10717 10713 10710 10707 10704 10700 10696 10693 10691 10688 10685 10682 10680
10769 10766 10762 10761 10759 10754 10751 10748 10746 10744 10740 10736 10734 10730 10726 10722 10719 10716 10713 10709 10704 10700 10697 10693 10690 10688 10684 10682 10679 10676 10674 10671 10669
10754 10750 10748 10747 10745 10741 10736 10733 10731 10729 10726 10723 10720 10717 10714 10708 10705 10703 10700 10695 10692 10688 10683 10681 10679 10677 10673 10668 10665 10662 10659 10659 10655
10738 10735 10731 10728 10728 10727 10721 10719 10715 10712 10711 10708 10704 10704 10700 10695 10691 10690 10686 10681 10678 10675 10672 10668 10666 10662 10659 10655 10652 10649 10645 10644 10641
10723 10718 10712 10711 10708 10707 10706 10701 10699 10696 10694 10692 10690 10688 10686 10678 10678 10675 10672 10668 10664 10660 10658 10654 10650 10645 10642 10636 10634 10633 10630 10628 10626
10705 10700 10697 10693 10692 10688 10686 10681 10680 10679 10677 10673 10674 10671 10670 10664 10661 10660 10657 10654 10650 10645 10643 10640 10637 10634 10630 10622 10619 10614 10614 10613 10610
10686 10683 10679 10675 10672 10670 10664 10665 10662 10657 10659 10652 10655 10655 10653 10650 10646 10643 10641 10639 10635 10631 10628 10624 10622 10618 10615 10611 10607 10602 10601 10598 10596
10665 10662 10659 10654 10652 10650 10645 10643 10644 10639 10635 10636 10634 10633 10634 10633 10629 10627 10624 10623 10619 10614 10610 10607 10604 10602 10598 10596 10594 10588 10585 10582 10579